EW4210 Weather Reports


Display with metric or nautical units.
time (UTC)temp
F
wind
direction
speed
MPH
gust
MPH
rain 1hr
in
rain 24hr
in
rain mn
in
humidity
%
barometer
mb
20260506134515 49 341 1.0 3.0 0.00 0.13 0.05 91 1015.2
20260506133133 49 19 0.0 3.0 0.00 0.13 0.05 92 1014.9
20260506133001 49 334 0.0 3.0 0.00 0.13 0.05 91 1015.0
20260506131543 49 344 1.0 3.0 0.00 0.13 0.05 92 1014.7
20260506130018 49 346 0.0 3.0 0.00 0.13 0.05 93 1014.8
20260506124557 49 19 1.0 3.0 0.00 0.13 0.05 92 1014.2
20260506124506 49 19 1.0 3.0 0.00 0.13 0.05 92 1014.3
20260506123046 49 5 1.0 3.0 0.00 0.13 0.05 93 1013.7
20260506121524 49 20 1.0 4.0 0.00 0.13 0.05 94 1012.9
20260506120106 49 342 1.0 3.0 0.00 0.13 0.05 94 1012.9
20260506120003 49 346 1.0 3.0 0.00 0.13 0.05 94 1012.7
20260506114550 49 345 0.0 3.0 0.00 0.13 0.05 95 1012.3
20260506113033 49 338 1.0 3.0 0.00 0.13 0.05 95 1012.0
20260506111510 49 26 1.0 3.0 0.00 0.13 0.05 95 1012.0
20260506110049 49 24 0.0 3.0 0.01 0.13 0.05 95 1011.7
20260506104538 49 343 1.0 3.0 0.01 0.13 0.05 95 1011.5
20260506103020 49 341 2.0 4.0 0.01 0.13 0.05 95 1011.7
20260506101554 49 340 1.0 3.0 0.02 0.13 0.05 95 1011.7
20260506100043 49 27 0.0 2.0 0.02 0.12 0.04 95 1011.2
20260506094526 49 25 2.0 4.0 0.03 0.12 0.04 95 1010.8
20260506093100 49 46 2.0 4.0 0.04 0.12 0.04 95 1010.4
20260506093002 49 32 2.0 4.0 0.04 0.12 0.04 95 1010.6
20260506091538 49 121 0.0 3.0 0.03 0.11 0.03 95 1011.2
20260506090018 49 27 0.0 5.0 0.02 0.10 0.02 95 1010.5
20260506084602 50 64 3.0 5.0 0.01 0.09 0.01 95 1009.8
20260506083035 50 11 2.0 8.0 0.00 0.08 0.00 94 1010.1
20260506081516 50 347 2.0 6.0 0.00 0.08 0.00 93 1010.2
20260506073014 51 11 3.0 6.0 0.00 0.08 0.00 94 1009.3
20260506071554 51 5 2.0 4.0 0.00 0.08 0.00 94 1008.8
20260506061530 52 355 3.0 6.0 0.05 0.08 0.08 93 1008.1
20260506044517 59 5 2.0 4.0 0.00 0.00 0.00 88 1006.8
20260506043050 60 355 2.0 8.0 0.00 0.00 0.00 85 1007.2
20260506041528 63 342 3.0 5.0 0.00 0.00 0.00 86 1006.7
20260506040005 67 347 2.0 5.0 0.00 0.00 0.00 88 1006.4
20260506034605 69 299 2.0 4.0 0.00 0.00 0.00 93 1006.3
20260506033030 70 360 0.0 2.0 0.00 0.00 0.00 94 1005.7
20260506031527 70 87 0.0 2.0 0.00 0.00 0.00 94 1005.1
20260506030051 70 104 0.0 3.0 0.00 0.00 0.00 94 1005.6
20260506024534 70 130 0.0 4.0 0.00 0.00 0.00 94 1005.4
20260506023018 70 126 1.0 6.0 0.00 0.00 0.00 94 1004.9
20260506021555 70 106 0.0 4.0 0.00 0.00 0.00 93 1005.2
20260506020041 70 167 0.0 2.0 0.00 0.00 0.00 93 1005.1
20260506014519 70 106 0.0 2.0 0.00 0.00 0.00 93 1004.7
20260506013109 70 59 0.0 2.0 0.00 0.00 0.00 93 1004.8
20260506011543 70 77 1.0 3.0 0.00 0.00 0.00 93 1004.8
20260506010047 70 141 0.0 3.0 0.00 0.00 0.00 92 1004.7
20260506004509 70 100 0.0 3.0 0.00 0.00 0.00 92 1004.6
20260506003100 70 277 0.0 3.0 0.00 0.00 0.00 92 1004.3
20260506001540 70 59 1.0 3.0 0.00 0.00 0.00 92 1004.2
20260506000019 71 161 2.0 7.0 0.00 0.00 0.00 91 1004.2
20260505234507 70 159 2.0 4.0 0.00 0.00 0.00 91 1004.5
20260505233047 70 78 0.0 7.0 0.00 0.00 0.00 91 1004.3
20260505231527 70 175 1.0 4.0 0.00 0.00 0.00 90 1004.5
20260505230011 71 188 0.0 3.0 0.00 0.00 0.00 90 1004.4
20260505224547 71 138 0.0 3.0 0.00 0.00 0.00 90 1004.3
20260505223030 71 257 0.0 7.0 0.00 0.00 0.00 90 1004.2
20260505221510 70 110 0.0 4.0 0.00 0.00 0.00 90 1004.3
20260505220051 70 137 1.0 6.0 0.00 0.00 0.00 90 1004.4
20260505214529 70 265 1.0 3.0 0.00 0.00 0.00 90 1005.1
20260505213026 70 224 1.0 9.0 0.00 0.00 0.00 89 1005.0
20260505211505 70 212 1.0 4.0 0.00 0.00 0.00 89 1004.8
20260505210046 70 169 1.0 4.0 0.00 0.00 0.00 89 1005.0
20260505204525 70 81 1.0 6.0 0.00 0.00 0.00 89 1005.2
20260505203007 70 267 2.0 11.0 0.00 0.00 0.00 89 1004.8
20260505201551 70 185 1.0 5.0 0.00 0.00 0.00 89 1005.0
20260505200027 69 110 0.0 5.0 0.00 0.00 0.00 89 1005.4
20260505194509 69 147 1.0 5.0 0.00 0.00 0.00 89 1005.2
20260505193049 69 294 0.0 2.0 0.00 0.00 0.00 90 1005.4
20260505191533 68 236 1.0 4.0 0.00 0.00 0.00 89 1005.5
20260505190019 68 92 1.0 3.0 0.00 0.00 0.00 89 1005.5
20260505184547 68 51 1.0 4.0 0.00 0.00 0.00 89 1005.2
20260505183045 68 15 2.0 8.0 0.00 0.00 0.00 88 1005.4
20260505181516 69 221 2.0 6.0 0.00 0.00 0.00 87 1005.2
20260505180058 69 227 4.0 11.0 0.00 0.00 0.00 89 1005.3
20260505180002 69 152 1.0 6.0 0.00 0.00 0.00 88 1005.3
20260505174543 69 235 0.0 8.0 0.00 0.00 0.00 90 1005.4
20260505173032 68 62 1.0 5.0 0.00 0.00 0.00 91 1005.5
20260505171504 68 355 1.0 11.0 0.00 0.00 0.00 91 1005.6
20260505170044 67 267 1.0 7.0 0.00 0.00 0.00 92 1005.9
20260505164524 67 71 1.0 5.0 0.00 0.00 0.00 93 1006.2
20260505163009 66 324 0.0 4.0 0.00 0.00 0.00 93 1006.0
20260505161603 66 267 1.0 4.0 0.00 0.00 0.00 93 1006.1
20260505153100 66 127 0.0 6.0 0.00 0.00 0.00 95 1006.1
20260505153004 66 229 0.0 6.0 0.00 0.00 0.00 95 1006.2
20260505151543 65 291 0.0 3.0 0.00 0.00 0.00 95 1006.3